| time (UTC) | temp C | wind direction | speed KPH | gust KPH | rain 1hr cm | rain 24hr cm | rain mn cm | humidity % | barometer mb |
| 20260502210420 | 12 | 304 | 8.0 | 17.7 | 0.00 | 0.00 | 0.00 | 45 | 1013.2 |
| 20260502205920 | 13 | 321 | 9.7 | 17.7 | 0.00 | 0.00 | 0.00 | 43 | 1012.9 |
| 20260502205419 | 12 | 76 | 1.6 | 4.8 | 0.00 | 0.00 | 0.00 | 46 | 1012.5 |
| 20260502204919 | 12 | 316 | 9.7 | 12.9 | 0.00 | 0.00 | 0.00 | 44 | 1012.5 |
| 20260502204419 | 12 | 303 | 12.9 | 17.7 | 0.00 | 0.00 | 0.00 | 44 | 1013.0 |
| 20260502203908 | 12 | 314 | 8.0 | 9.7 | 0.00 | 0.00 | 0.00 | 44 | 1013.0 |
| 20260502203418 | 12 | 310 | 9.7 | 14.5 | 0.00 | 0.00 | 0.00 | 44 | 1013.0 |
| 20260502202917 | 12 | 312 | 6.4 | 12.9 | 0.00 | 0.00 | 0.00 | 45 | 1013.0 |
| 20260502202417 | 12 | 296 | 6.4 | 12.9 | 0.00 | 0.00 | 0.00 | 45 | 1013.1 |
| 20260502201917 | 12 | 3 | 6.4 | 9.7 | 0.00 | 0.00 | 0.00 | 46 | 1012.7 |
| 20260502201416 | 12 | 315 | 11.3 | 14.5 | 0.00 | 0.00 | 0.00 | 43 | 1012.7 |
| 20260502200916 | 12 | 311 | 9.7 | 14.5 | 0.00 | 0.00 | 0.00 | 43 | 1013.0 |
| 20260502200416 | 12 | 337 | 6.4 | 11.3 | 0.00 | 0.00 | 0.00 | 46 | 1013.0 |
| 20260502195915 | 12 | 336 | 6.4 | 9.7 | 0.00 | 0.00 | 0.00 | 45 | 1013.0 |
| 20260502195415 | 12 | 349 | 6.4 | 14.5 | 0.00 | 0.00 | 0.00 | 44 | 1012.5 |
| 20260502194914 | 12 | 314 | 4.8 | 9.7 | 0.00 | 0.00 | 0.00 | 46 | 1013.0 |
| 20260502194414 | 12 | 305 | 9.7 | 17.7 | 0.00 | 0.00 | 0.00 | 44 | 1013.0 |
| 20260502193914 | 12 | 48 | 9.7 | 17.7 | 0.00 | 0.00 | 0.00 | 44 | 1013.0 |
| 20260502193413 | 12 | 31 | 6.4 | 11.3 | 0.00 | 0.00 | 0.00 | 44 | 1013.1 |
| 20260502192912 | 12 | 305 | 6.4 | 17.7 | 0.00 | 0.00 | 0.00 | 45 | 1013.1 |
| 20260502192412 | 12 | 12 | 6.4 | 11.3 | 0.00 | 0.00 | 0.00 | 45 | 1013.1 |
| 20260502191912 | 12 | 50 | 6.4 | 9.7 | 0.00 | 0.00 | 0.00 | 46 | 1013.2 |
| 20260502191411 | 13 | 9 | 6.4 | 11.3 | 0.00 | 0.00 | 0.00 | 43 | 1013.0 |
| 20260502190911 | 13 | 338 | 6.4 | 12.9 | 0.00 | 0.00 | 0.00 | 44 | 1012.8 |
| 20260502190411 | 14 | 296 | 8.0 | 17.7 | 0.00 | 0.00 | 0.00 | 42 | 1013.0 |
| 20260502185901 | 13 | 31 | 6.4 | 14.5 | 0.00 | 0.00 | 0.00 | 44 | 1012.7 |
| 20260502185410 | 13 | 36 | 3.2 | 6.4 | 0.00 | 0.00 | 0.00 | 45 | 1012.7 |
| 20260502184910 | 13 | 349 | 8.0 | 16.1 | 0.00 | 0.00 | 0.00 | 43 | 1013.0 |
| 20260502184409 | 14 | 26 | 8.0 | 14.5 | 0.00 | 0.00 | 0.00 | 43 | 1012.7 |
| 20260502183909 | 13 | 44 | 9.7 | 17.7 | 0.00 | 0.00 | 0.00 | 42 | 1012.4 |
| 20260502183409 | 13 | 0 | 4.8 | 9.7 | 0.00 | 0.00 | 0.00 | 44 | 1012.8 |
| 20260502182908 | 13 | 13 | 4.8 | 9.7 | 0.00 | 0.00 | 0.00 | 43 | 1013.0 |
| 20260502182408 | 13 | 2 | 3.2 | 9.7 | 0.00 | 0.00 | 0.00 | 44 | 1012.5 |
| 20260502181908 | 13 | 86 | 4.8 | 8.0 | 0.00 | 0.00 | 0.00 | 44 | 1013.2 |
| 20260502181408 | 13 | 22 | 9.7 | 14.5 | 0.00 | 0.00 | 0.00 | 43 | 1012.9 |
| 20260502180907 | 13 | 42 | 11.3 | 14.5 | 0.00 | 0.00 | 0.00 | 43 | 1012.9 |
| 20260502180407 | 13 | 6 | 6.4 | 11.3 | 0.00 | 0.00 | 0.00 | 46 | 1012.9 |
| 20260502170402 | 11 | 77 | 3.2 | 6.4 | 0.00 | 0.00 | 0.00 | 48 | 1013.6 |
| 20260502163900 | 11 | 296 | 9.7 | 14.5 | 0.00 | 0.00 | 0.00 | 49 | 1014.0 |
| 20260502163400 | 11 | 310 | 4.8 | 14.5 | 0.00 | 0.00 | 0.00 | 50 | 1014.0 |
| 20260502162859 | 11 | 341 | 6.4 | 11.3 | 0.00 | 0.00 | 0.00 | 51 | 1014.1 |
| 20260502162359 | 11 | 56 | 3.2 | 6.4 | 0.00 | 0.00 | 0.00 | 50 | 1014.3 |
| 20260502161858 | 11 | 61 | 3.2 | 6.4 | 0.00 | 0.00 | 0.00 | 50 | 1014.4 |
| 20260502161348 | 11 | 25 | 6.4 | 11.3 | 0.00 | 0.00 | 0.00 | 50 | 1014.4 |
| 20260502160848 | 11 | 308 | 8.0 | 14.5 | 0.00 | 0.00 | 0.00 | 51 | 1014.6 |
| 20260502160348 | 11 | 32 | 8.0 | 16.1 | 0.00 | 0.00 | 0.00 | 50 | 1014.5 |
| 20260502151854 | 9 | 68 | 0.0 | 3.2 | 0.00 | 0.00 | 0.00 | 56 | 1014.6 |
| 20260502151354 | 9 | 24 | 4.8 | 9.7 | 0.00 | 0.00 | 0.00 | 59 | 1014.5 |
| 20260502150853 | 8 | 313 | 1.6 | 3.2 | 0.00 | 0.00 | 0.00 | 59 | 1015.0 |
| 20260502150353 | 8 | 294 | 6.4 | 9.7 | 0.00 | 0.00 | 0.00 | 58 | 1015.0 |
| 20260502130344 | 6 | 57 | 4.8 | 6.4 | 0.00 | 0.00 | 0.00 | 64 | 1015.0 |
| 20260502123342 | 6 | 315 | 4.8 | 9.7 | 0.00 | 0.00 | 0.00 | 66 | 1014.8 |
| 20260502122842 | 6 | 355 | 3.2 | 3.2 | 0.00 | 0.00 | 0.00 | 66 | 1014.9 |
| 20260502122331 | 6 | 336 | 1.6 | 3.2 | 0.00 | 0.00 | 0.00 | 65 | 1014.9 |
| 20260502121831 | 6 | 317 | 1.6 | 3.2 | 0.00 | 0.00 | 0.00 | 66 | 1014.9 |
| 20260502121341 | 6 | 28 | 1.6 | 3.2 | 0.00 | 0.00 | 0.00 | 66 | 1015.0 |
| 20260502120830 | 6 | 289 | 4.8 | 9.7 | 0.00 | 0.00 | 0.00 | 65 | 1015.1 |
| 20260502120330 | 6 | 288 | 1.6 | 3.2 | 0.00 | 0.00 | 0.00 | 66 | 1015.1 |
| 20260502115840 | 6 | 326 | 3.2 | 8.0 | 0.00 | 0.00 | 0.00 | 67 | 1015.0 |
| 20260502115339 | 6 | 301 | 4.8 | 9.7 | 0.00 | 0.00 | 0.00 | 67 | 1015.0 |
| 20260502114839 | 6 | 300 | 6.4 | 11.3 | 0.00 | 0.00 | 0.00 | 67 | 1015.1 |
| 20260502114328 | 6 | 2 | 3.2 | 3.2 | 0.00 | 0.00 | 0.00 | 67 | 1015.0 |
| 20260502113828 | 6 | 336 | 0.0 | 1.6 | 0.00 | 0.00 | 0.00 | 68 | 1014.9 |
| 20260502113338 | 6 | 277 | 3.2 | 4.8 | 0.00 | 0.00 | 0.00 | 66 | 1014.9 |
| 20260502112837 | 6 | 315 | 1.6 | 3.2 | 0.00 | 0.00 | 0.00 | 65 | 1014.8 |
| 20260502112337 | 6 | 20 | 3.2 | 3.2 | 0.00 | 0.00 | 0.00 | 65 | 1014.8 |
| 20260502111840 | 6 | 291 | 1.6 | 4.8 | 0.00 | 0.00 | 0.00 | 65 | 1014.6 |
| 20260502111327 | 6 | 314 | 3.2 | 9.7 | 0.00 | 0.00 | 0.00 | 64 | 1014.7 |
| 20260502110836 | 6 | 317 | 6.4 | 8.0 | 0.00 | 0.00 | 0.00 | 63 | 1014.5 |
| 20260502110336 | 6 | 309 | 6.4 | 12.9 | 0.00 | 0.00 | 0.00 | 63 | 1014.5 |
| 20260502105826 | 6 | 299 | 6.4 | 9.7 | 0.00 | 0.00 | 0.00 | 63 | 1014.6 |
| 20260502105335 | 6 | 295 | 3.2 | 3.2 | 0.00 | 0.00 | 0.00 | 62 | 1014.6 |
| 20260502104825 | 5 | 296 | 4.8 | 4.8 | 0.00 | 0.00 | 0.00 | 63 | 1014.6 |
| 20260502104324 | 6 | 324 | 3.2 | 4.8 | 0.00 | 0.00 | 0.00 | 64 | 1014.6 |
| 20260502103834 | 6 | 296 | 4.8 | 6.4 | 0.00 | 0.00 | 0.00 | 64 | 1014.5 |
| 20260502103323 | 6 | 37 | 1.6 | 3.2 | 0.00 | 0.00 | 0.00 | 63 | 1014.6 |
| 20260502102833 | 6 | 122 | 1.6 | 1.6 | 0.00 | 0.00 | 0.00 | 62 | 1014.7 |
| 20260502102333 | 6 | 348 | 1.6 | 4.8 | 0.00 | 0.00 | 0.00 | 61 | 1014.8 |
| 20260502101832 | 6 | 309 | 1.6 | 3.2 | 0.00 | 0.00 | 0.00 | 60 | 1014.8 |
| 20260502101332 | 6 | 53 | 1.6 | 3.2 | 0.00 | 0.00 | 0.00 | 59 | 1014.8 |
| 20260502100832 | 6 | 0 | 1.6 | 3.2 | 0.00 | 0.00 | 0.00 | 59 | 1014.9 |
| 20260502100331 | 6 | 323 | 3.2 | 3.2 | 0.00 | 0.00 | 0.00 | 59 | 1014.9 |
| 20260502091328 | 7 | 304 | 6.4 | 11.3 | 0.00 | 0.00 | 0.00 | 59 | 1014.8 |
| 20260502090827 | 7 | 308 | 1.6 | 3.2 | 0.00 | 0.00 | 0.00 | 59 | 1015.0 |
| 20260502090327 | 7 | 337 | 3.2 | 4.8 | 0.00 | 0.00 | 0.00 | 59 | 1014.9 |
| 20260502071318 | 8 | 28 | 3.2 | 6.4 | 0.00 | 0.00 | 0.00 | 75 | 1014.4 |
| 20260502070818 | 8 | 45 | 4.8 | 6.4 | 0.00 | 0.00 | 0.00 | 75 | 1014.4 |
| 20260502070308 | 8 | 66 | 3.2 | 4.8 | 0.00 | 0.00 | 0.00 | 74 | 1014.4 |
| 20260502065807 | 8 | 0 | 1.6 | 3.2 | 0.00 | 0.00 | 0.00 | 74 | 1014.5 |
| 20260502065317 | 8 | 309 | 1.6 | 11.3 | 0.00 | 0.00 | 0.00 | 74 | 1014.4 |
| 20260502064806 | 8 | 20 | 1.6 | 6.4 | 0.00 | 0.00 | 0.00 | 74 | 1014.6 |
| 20260502064316 | 8 | 297 | 3.2 | 6.4 | 0.00 | 0.00 | 0.00 | 74 | 1014.6 |
| 20260502063806 | 8 | 55 | 3.2 | 6.4 | 0.00 | 0.00 | 0.00 | 74 | 1014.6 |
| 20260502063315 | 8 | 329 | 4.8 | 12.9 | 0.00 | 0.00 | 0.00 | 73 | 1014.7 |
| 20260502062805 | 8 | 290 | 1.6 | 4.8 | 0.00 | 0.00 | 0.00 | 74 | 1014.6 |
| 20260502062315 | 8 | 324 | 1.6 | 3.2 | 0.00 | 0.00 | 0.00 | 74 | 1014.8 |
| 20260502061814 | 8 | 316 | 3.2 | 6.4 | 0.00 | 0.00 | 0.00 | 74 | 1014.9 |
| 20260502061314 | 8 | 326 | 1.6 | 4.8 | 0.00 | 0.00 | 0.00 | 74 | 1014.8 |
| 20260502060804 | 8 | 330 | 3.2 | 4.8 | 0.00 | 0.00 | 0.00 | 74 | 1014.9 |
| 20260502060313 | 8 | 332 | 1.6 | 6.4 | 0.00 | 0.00 | 0.00 | 73 | 1014.9 |
| 20260502055803 | 8 | 6 | 1.6 | 4.8 | 0.00 | 0.00 | 0.00 | 73 | 1014.9 |
| 20260502055305 | 8 | 330 | 1.6 | 3.2 | 0.00 | 0.00 | 0.00 | 73 | 1014.9 |
| 20260502054812 | 8 | 88 | 0.0 | 1.6 | 0.00 | 0.00 | 0.00 | 73 | 1015.0 |
| 20260502054312 | 8 | 12 | 3.2 | 4.8 | 0.00 | 0.00 | 0.00 | 73 | 1015.1 |
| 20260502053812 | 8 | 21 | 3.2 | 3.2 | 0.00 | 0.00 | 0.00 | 73 | 1015.1 |
| 20260502053311 | 8 | 316 | 0.0 | 1.6 | 0.00 | 0.00 | 0.00 | 73 | 1015.0 |
| 20260502052801 | 8 | 35 | 1.6 | 4.8 | 0.00 | 0.00 | 0.00 | 72 | 1014.8 |
| 20260502052311 | 9 | 15 | 6.4 | 9.7 | 0.00 | 0.00 | 0.00 | 71 | 1014.8 |
| 20260502051811 | 9 | 52 | 6.4 | 9.7 | 0.00 | 0.00 | 0.00 | 71 | 1014.7 |
| 20260502051300 | 9 | 21 | 3.2 | 4.8 | 0.00 | 0.00 | 0.00 | 72 | 1014.9 |
| 20260502050800 | 9 | 351 | 1.6 | 6.4 | 0.00 | 0.00 | 0.00 | 72 | 1014.8 |
| 20260502050309 | 9 | 46 | 6.4 | 9.7 | 0.00 | 0.00 | 0.00 | 72 | 1014.8 |
| 20260502045809 | 9 | 352 | 6.4 | 9.7 | 0.00 | 0.00 | 0.00 | 71 | 1014.8 |
| 20260502045258 | 9 | 43 | 4.8 | 8.0 | 0.00 | 0.00 | 0.00 | 71 | 1014.7 |
| 20260502044808 | 9 | 51 | 4.8 | 9.7 | 0.00 | 0.00 | 0.00 | 72 | 1014.8 |
| 20260502044308 | 9 | 14 | 1.6 | 3.2 | 0.00 | 0.00 | 0.00 | 71 | 1014.8 |
| 20260502043807 | 9 | 5 | 3.2 | 6.4 | 0.00 | 0.00 | 0.00 | 71 | 1014.8 |
| 20260502043307 | 10 | 49 | 1.6 | 3.2 | 0.00 | 0.00 | 0.00 | 71 | 1014.8 |
| 20260502042806 | 10 | 347 | 3.2 | 8.0 | 0.00 | 0.00 | 0.00 | 71 | 1014.9 |
| 20260502042306 | 10 | 33 | 3.2 | 4.8 | 0.00 | 0.00 | 0.00 | 71 | 1014.9 |
| 20260502041806 | 10 | 344 | 1.6 | 3.2 | 0.00 | 0.00 | 0.00 | 71 | 1014.8 |
| 20260502041305 | 10 | 40 | 3.2 | 6.4 | 0.00 | 0.00 | 0.00 | 71 | 1014.8 |
| 20260502040805 | 10 | 32 | 3.2 | 4.8 | 0.00 | 0.00 | 0.00 | 70 | 1014.7 |
| 20260502040254 | 10 | 36 | 3.2 | 6.4 | 0.00 | 0.00 | 0.00 | 71 | 1014.7 |
| 20260502035804 | 10 | 248 | 1.6 | 3.2 | 0.00 | 0.00 | 0.00 | 72 | 1014.7 |
| 20260502035306 | 10 | 42 | 3.2 | 6.4 | 0.00 | 0.00 | 0.00 | 72 | 1014.7 |
| 20260502034803 | 10 | 338 | 1.6 | 6.4 | 0.00 | 0.00 | 0.00 | 72 | 1014.7 |
| 20260502034303 | 10 | 343 | 0.0 | 3.2 | 0.00 | 0.00 | 0.00 | 73 | 1014.8 |
| 20260502033802 | 10 | 301 | 1.6 | 4.8 | 0.00 | 0.00 | 0.00 | 72 | 1014.8 |
| 20260502033302 | 10 | 60 | 4.8 | 6.4 | 0.00 | 0.00 | 0.00 | 72 | 1014.6 |
| 20260502032802 | 10 | 37 | 3.2 | 4.8 | 0.00 | 0.00 | 0.00 | 71 | 1014.7 |
| 20260502032305 | 10 | 49 | 1.6 | 3.2 | 0.00 | 0.00 | 0.00 | 71 | 1014.8 |
| 20260502031801 | 10 | 301 | 4.8 | 6.4 | 0.00 | 0.00 | 0.00 | 71 | 1014.7 |
| 20260502031301 | 10 | 304 | 6.4 | 12.9 | 0.00 | 0.00 | 0.00 | 71 | 1014.7 |
| 20260502030800 | 10 | 310 | 3.2 | 4.8 | 0.00 | 0.00 | 0.00 | 71 | 1014.6 |
| 20260502030300 | 10 | 3 | 3.2 | 4.8 | 0.00 | 0.00 | 0.00 | 72 | 1014.7 |
| 20260502025800 | 11 | 301 | 4.8 | 6.4 | 0.00 | 0.00 | 0.00 | 72 | 1014.7 |
| 20260502025259 | 11 | 307 | 1.6 | 4.8 | 0.00 | 0.00 | 0.00 | 72 | 1014.6 |
| 20260502024750 | 11 | 48 | 1.6 | 4.8 | 0.00 | 0.00 | 0.00 | 72 | 1014.6 |
| 20260502024250 | 11 | 306 | 3.2 | 8.0 | 0.00 | 0.00 | 0.00 | 71 | 1014.5 |
| 20260502023758 | 11 | 26 | 6.4 | 11.3 | 0.00 | 0.00 | 0.00 | 71 | 1014.5 |
| 20260502023249 | 11 | 323 | 3.2 | 6.4 | 0.00 | 0.00 | 0.00 | 71 | 1014.5 |
| 20260502022748 | 11 | 301 | 3.2 | 6.4 | 0.00 | 0.00 | 0.00 | 70 | 1014.5 |
| 20260502022258 | 11 | 29 | 1.6 | 6.4 | 0.00 | 0.00 | 0.00 | 69 | 1014.4 |
| 20260502021736 | 11 | 25 | 3.2 | 6.4 | 0.00 | 0.00 | 0.00 | 69 | 1014.3 |
| 20260502021236 | 11 | 340 | 4.8 | 8.0 | 0.00 | 0.00 | 0.00 | 68 | 1014.3 |
| 20260502020736 | 11 | 19 | 4.8 | 8.0 | 0.00 | 0.00 | 0.00 | 67 | 1013.9 |
| 20260502020235 | 12 | 355 | 3.2 | 8.0 | 0.00 | 0.00 | 0.00 | 67 | 1013.9 |
| 20260502015735 | 12 | 222 | 1.6 | 3.2 | 0.00 | 0.00 | 0.00 | 65 | 1013.7 |
| 20260502015234 | 12 | 23 | 8.0 | 12.9 | 0.00 | 0.00 | 0.00 | 64 | 1013.4 |
| 20260502014734 | 12 | 45 | 1.6 | 4.8 | 0.00 | 0.00 | 0.00 | 63 | 1013.2 |
| 20260502014234 | 12 | 28 | 6.4 | 11.3 | 0.00 | 0.00 | 0.00 | 62 | 1013.1 |
| 20260502013733 | 13 | 17 | 3.2 | 8.0 | 0.00 | 0.00 | 0.00 | 61 | 1013.0 |
| 20260502013233 | 13 | 350 | 3.2 | 8.0 | 0.00 | 0.00 | 0.00 | 59 | 1013.0 |
| 20260502012733 | 13 | 4 | 4.8 | 9.7 | 0.00 | 0.00 | 0.00 | 57 | 1012.9 |
| 20260502012232 | 14 | 31 | 3.2 | 6.4 | 0.00 | 0.00 | 0.00 | 54 | 1012.7 |
| 20260502011732 | 15 | 331 | 3.2 | 4.8 | 0.00 | 0.00 | 0.00 | 49 | 1012.7 |
| 20260502011232 | 15 | 313 | 1.6 | 3.2 | 0.00 | 0.00 | 0.00 | 48 | 1012.4 |
| 20260502010731 | 15 | 325 | 1.6 | 3.2 | 0.00 | 0.00 | 0.00 | 46 | 1012.2 |
| 20260502010231 | 15 | 248 | 1.6 | 3.2 | 0.00 | 0.00 | 0.00 | 47 | 1012.1 |
| 20260502005731 | 15 | 220 | 1.6 | 1.6 | 0.00 | 0.00 | 0.00 | 47 | 1012.1 |
| 20260502005230 | 15 | 240 | 0.0 | 3.2 | 0.00 | 0.00 | 0.00 | 50 | 1012.0 |
| 20260502004730 | 15 | 204 | 1.6 | 3.2 | 0.00 | 0.00 | 0.00 | 49 | 1011.9 |
| 20260502004230 | 15 | 306 | 1.6 | 3.2 | 0.00 | 0.00 | 0.00 | 46 | 1011.8 |
| 20260502003729 | 15 | 344 | 0.0 | 1.6 | 0.00 | 0.00 | 0.00 | 46 | 1011.7 |
| 20260502003229 | 16 | 297 | 1.6 | 3.2 | 0.00 | 0.00 | 0.00 | 43 | 1011.6 |
| 20260502002729 | 16 | 259 | 1.6 | 3.2 | 0.00 | 0.00 | 0.00 | 43 | 1011.5 |
| 20260502002228 | 16 | 246 | 1.6 | 3.2 | 0.00 | 0.00 | 0.00 | 43 | 1011.5 |
| 20260502001728 | 16 | 234 | 1.6 | 3.2 | 0.00 | 0.00 | 0.00 | 43 | 1011.4 |
| 20260502001228 | 16 | 220 | 1.6 | 3.2 | 0.00 | 0.00 | 0.00 | 42 | 1011.4 |
| 20260502000727 | 16 | 226 | 3.2 | 4.8 | 0.00 | 0.00 | 0.00 | 41 | 1011.3 |
| 20260502000227 | 16 | 270 | 3.2 | 3.2 | 0.00 | 0.00 | 0.00 | 41 | 1011.2 |
| 20260501235727 | 16 | 310 | 4.8 | 8.0 | 0.00 | 0.00 | 0.00 | 40 | 1011.2 |
| 20260501235226 | 17 | 294 | 3.2 | 4.8 | 0.00 | 0.00 | 0.00 | 40 | 1011.1 |
| 20260501234726 | 17 | 276 | 4.8 | 8.0 | 0.00 | 0.00 | 0.00 | 39 | 1011.0 |
| 20260501234226 | 17 | 267 | 6.4 | 9.7 | 0.00 | 0.00 | 0.00 | 39 | 1010.7 |
| 20260501233725 | 17 | 272 | 3.2 | 4.8 | 0.00 | 0.00 | 0.00 | 39 | 1010.7 |
| 20260501233225 | 17 | 246 | 0.0 | 1.6 | 0.00 | 0.00 | 0.00 | 39 | 1010.7 |
| 20260501232725 | 17 | 299 | 3.2 | 6.4 | 0.00 | 0.00 | 0.00 | 38 | 1010.7 |
| 20260501232224 | 17 | 282 | 4.8 | 8.0 | 0.00 | 0.00 | 0.00 | 37 | 1010.6 |
| 20260501231724 | 18 | 311 | 6.4 | 9.7 | 0.00 | 0.00 | 0.00 | 37 | 1010.6 |
| 20260501231223 | 18 | 286 | 3.2 | 8.0 | 0.00 | 0.00 | 0.00 | 37 | 1010.6 |
| 20260501230723 | 18 | 279 | 4.8 | 6.4 | 0.00 | 0.00 | 0.00 | 36 | 1010.6 |
| 20260501230223 | 18 | 275 | 6.4 | 9.7 | 0.00 | 0.00 | 0.00 | 35 | 1010.6 |
| 20260501225722 | 18 | 246 | 6.4 | 9.7 | 0.00 | 0.00 | 0.00 | 35 | 1010.5 |
| 20260501225222 | 18 | 260 | 6.4 | 8.0 | 0.00 | 0.00 | 0.00 | 35 | 1010.5 |
| 20260501224722 | 18 | 296 | 6.4 | 14.5 | 0.00 | 0.00 | 0.00 | 35 | 1010.5 |
| 20260501224221 | 18 | 262 | 6.4 | 11.3 | 0.00 | 0.00 | 0.00 | 36 | 1010.4 |
| 20260501223721 | 18 | 214 | 6.4 | 9.7 | 0.00 | 0.00 | 0.00 | 36 | 1010.5 |
| 20260501223221 | 19 | 234 | 8.0 | 12.9 | 0.00 | 0.00 | 0.00 | 36 | 1010.4 |
| 20260501222720 | 19 | 272 | 6.4 | 9.7 | 0.00 | 0.00 | 0.00 | 34 | 1010.5 |
| 20260501222220 | 19 | 255 | 4.8 | 9.7 | 0.00 | 0.00 | 0.00 | 35 | 1010.5 |
| 20260501221720 | 19 | 281 | 4.8 | 8.0 | 0.00 | 0.00 | 0.00 | 36 | 1010.6 |
| 20260501221219 | 19 | 249 | 9.7 | 12.9 | 0.00 | 0.00 | 0.00 | 36 | 1010.6 |
| 20260501220719 | 20 | 211 | 1.6 | 4.8 | 0.00 | 0.00 | 0.00 | 36 | 1010.5 |
| 20260501220219 | 19 | 226 | 4.8 | 8.0 | 0.00 | 0.00 | 0.00 | 36 | 1010.5 |
| 20260501215719 | 18 | 200 | 6.4 | 9.7 | 0.00 | 0.00 | 0.00 | 42 | 1010.6 |
| 20260501215218 | 18 | 217 | 8.0 | 11.3 | 0.00 | 0.00 | 0.00 | 47 | 1010.7 |
| 20260501214718 | 18 | 198 | 9.7 | 19.3 | 0.00 | 0.00 | 0.00 | 46 | 1010.6 |
| 20260501214218 | 18 | 186 | 3.2 | 8.0 | 0.00 | 0.00 | 0.00 | 47 | 1010.3 |
| 20260501213717 | 17 | 174 | 4.8 | 8.0 | 0.00 | 0.00 | 0.00 | 48 | 1010.6 |
| 20260501213217 | 17 | 186 | 4.8 | 12.9 | 0.00 | 0.00 | 0.00 | 48 | 1010.8 |
| 20260501212717 | 17 | 179 | 1.6 | 4.8 | 0.00 | 0.00 | 0.00 | 48 | 1010.7 |
| 20260501212217 | 18 | 179 | 9.7 | 12.9 | 0.00 | 0.00 | 0.00 | 46 | 1010.8 |
| 20260501211716 | 18 | 188 | 11.3 | 17.7 | 0.00 | 0.00 | 0.00 | 46 | 1010.6 |
| 20260501211216 | 18 | 175 | 3.2 | 6.4 | 0.00 | 0.00 | 0.00 | 45 | 1011.1 |